北斗三号 M5 (BEIDOU 3M5)

基本信息
目录编号:
43207
目录名称:
BEIDOU 3M5
国际标识:
2018-018A
轨道中心:
EARTH
卫星名称:
北斗三号 M5
卫星全名:
北斗三号 M5 (BEIDOU 3M5)
卫星状态:
在轨 (已飞行2951 天)
发射日期:
2018-02-12 UTC
国别 :
中国 (CN)
星等 :
--
轨道信息
数据来源 国际轨道数据 AOE轨道数据
星历时间 2026-03-13T10:04:13+0800
21小时前
查看轨道信息
2026-03-08T06:00:00+0800
6天前
查看轨道信息
半长轴 27906.159km 27906.219km
偏心率 0.0006972 0.000689
轨道倾角 56.568° 56.563°
近地点辐角 350.359° 350.195°
升交点赤经 66.315° 66.486°
平近点角 9.650° 143.864°
近地点 21508.565km 21508.854km
远地点 21547.479km 21547.31km
周期 773.232分钟 773.234分钟
每日圈数 1.862313 1.862307
详细信息
平衡模式:
三轴稳定
制造商(研发单位):
中国空间技术研究院
制造商所在国:
中国
使用方式:
暂无
工作目标:
为全球用户提供连续、稳定、可靠的北斗导航、定位服务
预期寿命:
12年
卫星简介
北斗卫星导航系统是中国着眼于国家安全和经济社会发展需要,自主建设运行的全球卫星导航系统,是为全球用户提供全天候、全天时、高精度的定位、导航和授时服务的国家重要时空基础设施。该卫星仍在工作。
2D轨道图
3D轨道图
轨道高度分析图
轨道倾角分析图
轨道综合分析图
查看轨道综合分析图